Total_Precipitation_Accumulation
2.40 2.32 2.30 2.21 2.20 2.23 2.37 2.61 2.87 2.65 2.03 1.57 1.44 1.38 1.35 1.36 1.48 1.37 1.24 1.39 1.37 1.38 1.47 1.55 1.54 1.56 1.62 1.76 2.00 2.21 2.35 2.40 2.41 2.43 2.44 2.47 2.64 2.94
2.26 2.18 2.10 2.04 2.08 2.14 2.23 2.33 2.53 2.65 2.30 1.64 1.41 1.37 1.42 1.43 1.52 1.36 1.29 1.45 1.34 1.29 1.30 1.36 1.42 1.44 1.45 1.49 1.58 1.72 1.89 2.00 2.08 2.22 2.38 2.48 2.54 2.66
2.18 2.12 1.97 1.85 1.93 1.96 2.00 2.07 2.13 2.27 2.22 1.65 1.40 1.38 1.42 1.39 1.40 1.31 1.22 1.19 1.14 1.21 1.15 1.17 1.24 1.30 1.33 1.37 1.46 1.56 1.63 1.72 1.88 2.02 2.16 2.30 2.42 2.43
1.94 1.99 1.92 1.80 1.79 1.83 1.90 1.86 1.81 1.82 1.92 1.74 1.41 1.32 1.29 1.22 1.23 1.26 1.19 1.14 1.06 1.20 1.16 1.13 1.19 1.23 1.24 1.26 1.30 1.39 1.48 1.55 1.66 1.80 1.89 1.95 2.09 2.24
1.72 1.79 1.82 1.85 1.82 1.78 1.78 1.76 1.72 1.70 1.76 1.81 1.52 1.32 1.28 1.20 1.20 1.19 1.15 1.12 1.05 1.15 1.20 1.18 1.16 1.18 1.19 1.21 1.25 1.27 1.31 1.39 1.50 1.63 1.78 1.87 1.94 2.05
1.65 1.70 1.72 1.71 1.66 1.62 1.66 1.62 1.64 1.72 1.73 1.81 1.72 1.53 1.41 1.30 1.31 1.32 1.29 1.16 1.10 1.08 1.21 1.22 1.22 1.20 1.18 1.15 1.11 1.13 1.16 1.28 1.45 1.64 1.81 1.93 1.96 1.99
1.75 1.70 1.70 1.75 1.67 1.61 1.61 1.61 1.65 1.76 1.83 1.88 1.78 1.60 1.48 1.43 1.36 1.23 1.27 1.24 1.18 1.08 1.13 1.13 1.17 1.20 1.18 1.22 1.23 1.22 1.26 1.37 1.53 1.71 1.87 1.97 2.02 2.08
1.73 1.60 1.59 1.71 1.69 1.69 1.65 1.63 1.71 1.85 1.94 1.96 1.82 1.60 1.32 1.25 1.31 1.44 1.55 1.69 1.63 1.19 1.17 1.26 1.28 1.40 1.35 1.30 1.42 1.43 1.43 1.50 1.59 1.67 1.78 1.89 1.96 2.01
1.60 1.50 1.44 1.43 1.54 1.44 1.50 1.57 1.57 1.67 1.75 1.77 1.71 1.39 1.22 1.18 1.45 1.70 1.73 1.74 1.55 1.30 1.46 1.63 1.48 1.42 1.30 1.34 1.54 1.45 1.41 1.44 1.48 1.55 1.62 1.69 1.77 1.83
1.50 1.38 1.33 1.31 1.34 1.45 1.53 1.61 1.48 1.39 1.35 1.29 1.27 1.20 1.19 1.29 1.58 1.90 2.05 2.11 1.83 1.57 1.58 1.75 1.48 1.33 1.23 1.26 1.45 1.41 1.34 1.38 1.44 1.52 1.57 1.62 1.66 1.69
1.51 1.43 1.37 1.28 1.42 1.64 1.72 1.73 1.53 1.33 1.30 1.34 1.39 1.40 1.49 1.58 1.70 2.06 2.35 2.52 2.25 1.68 1.44 1.51 1.40 1.33 1.29 1.26 1.36 1.50 1.42 1.38 1.43 1.49 1.52 1.55 1.63 1.71
1.52 1.47 1.54 1.46 1.57 1.71 1.68 1.71 1.60 1.34 1.24 1.23 1.26 1.29 1.23 1.27 1.50 1.68 2.15 2.67 2.38 1.89 1.36 1.41 1.44 1.61 1.88 1.41 1.24 1.32 1.40 1.45 1.44 1.45 1.49 1.55 1.62 1.61
1.61 1.50 1.47 1.68 1.76 1.79 1.69 1.50 1.50 1.53 1.43 1.34 1.30 1.29 1.27 1.25 1.25 1.28 1.59 2.35 2.73 2.18 1.38 1.75 2.01 1.76 1.98 1.60 1.30 1.28 1.33 1.43 1.51 1.53 1.58 1.62 1.66 1.74
1.57 1.40 1.43 1.71 1.74 1.70 1.58 1.58 1.69 1.64 1.47 1.50 1.49 1.43 1.37 1.32 1.30 1.32 1.37 1.56 1.91 2.06 1.66 1.97 2.46 2.04 2.17 1.87 1.44 1.36 1.39 1.52 1.69 1.70 1.65 1.81 1.81 1.84
1.53 1.58 1.62 1.66 1.62 1.57 1.63 1.64 1.58 1.49 1.57 1.68 1.58 1.42 1.32 1.33 1.37 1.45 1.47 1.47 1.56 1.60 1.59 1.68 2.00 2.03 2.26 2.22 1.74 1.52 1.62 1.68 1.80 2.00 1.98 1.89 1.77 1.78
1.64 1.68 1.64 1.59 1.58 1.58 1.67 1.64 1.51 1.52 1.68 1.72 1.58 1.46 1.43 1.49 1.51 1.56 1.74 1.78 1.90 1.82 1.65 1.58 1.67 1.97 2.12 1.79 1.84 1.80 1.76 2.05 2.06 2.22 2.22 2.00 1.80 1.67
1.76 1.67 1.58 1.55 1.56 1.53 1.49 1.48 1.51 1.61 1.70 1.63 1.65 1.65 1.65 1.73 1.78 1.82 2.00 2.10 2.15 1.88 1.69 1.57 1.56 1.65 1.80 1.86 1.92 1.76 1.78 2.00 2.19 2.30 2.34 2.24 2.01 1.80
1.81 1.71 1.58 1.48 1.46 1.45 1.43 1.43 1.45 1.53 1.64 1.76 1.82 1.82 1.87 1.95 2.03 2.05 2.19 2.32 2.20 1.84 1.61 1.49 1.55 1.76 1.83 1.78 1.76 1.79 1.85 2.04 2.16 2.18 2.09 2.16 2.11 1.83
1.62 1.55 1.47 1.42 1.38 1.36 1.39 1.44 1.47 1.46 1.62 1.87 2.01 2.06 2.11 2.16 2.23 2.28 2.29 2.30 2.12 1.83 1.63 1.52 1.67 2.14 2.28 1.75 1.39 1.53 1.94 2.09 2.04 2.06 1.91 1.83 1.91 1.72
1.43 1.39 1.37 1.35 1.37 1.41 1.45 1.54 1.59 1.60 1.73 1.90 2.01 2.08 2.20 2.35 2.41 2.32 2.20 2.15 2.06 1.84 1.64 1.49 1.58 2.03 2.55 2.23 1.82 1.58 1.67 1.97 2.13 2.13 1.84 1.65 1.68 1.68
1.37 1.34 1.33 1.37 1.44 1.49 1.52 1.60 1.72 1.84 1.92 2.09 2.15 2.15 2.23 2.46 2.46 2.23 2.08 2.01 1.95 1.81 1.64 1.39 1.32 1.57 1.97 2.30 2.18 1.74 1.73 1.84 1.97 2.23 2.16 2.12 1.94 1.73
1.41 1.41 1.39 1.41 1.50 1.58 1.62 1.72 1.84 1.90 1.99 2.12 2.17 2.19 2.24 2.38 2.35 2.09 1.93 1.92 1.83 1.69 1.57 1.40 1.33 1.50 1.90 2.35 2.10 1.66 1.62 1.66 1.66 1.68 1.88 2.25 2.72 2.68
1.50 1.53 1.53 1.54 1.58 1.65 1.73 1.79 1.90 1.95 2.02 2.17 2.21 2.15 2.15 2.12 1.94 1.88 1.83 1.83 1.85 1.77 1.69 1.67 1.60 1.64 1.76 1.87 1.93 1.74 1.56 1.50 1.48 1.62 1.86 1.80 1.79 1.93